STARLINK-34585

Last updated on Fri Aug 08 2025 00:02:05 GMT+0000 (Coordinated Universal Time)

1 64779U 25147AA 25218.54636102 .01574056 00000+0 23450-1 0 9999 2 64779 53.1548 164.8235 0011146 359.5276 0.5722 15.51630535 5724
UTC large
Height (km)
Speed (km/s)
/
Latitude / Longitude
Inclination (degrees)
Orbital Period (minutes)
Azimuth
Elevation
Range (km)
Doppler Factor

Next 0 passes for location: London (51.5072 / 0.1276)

Sorry there are no passes over London.